CW9181 Weather Reports


Display with metric or nautical units.
time (UTC)temp
F
wind
direction
speed
MPH
gust
MPH
rain 1hr
in
rain 24hr
in
rain mn
in
humidity
%
barometer
mb
20260506032805 63 141 2.0 6.0 0.00 0.49 0.01 75 1016.3
20260506031804 63 110 2.0 6.0 0.00 0.49 0.01 74 1016.2
20260506030819 63 168 0.0 3.0 0.00 0.49 0.01 73 1015.9
20260506025814 63 136 3.0 7.0 0.00 0.58 0.01 73 1015.8
20260506024809 63 172 3.0 8.0 0.00 0.58 0.01 72 1015.7
20260506023842 63 155 2.0 8.0 0.00 0.58 0.01 72 1015.6
20260506022818 64 184 4.0 10.0 0.00 0.58 0.01 72 1015.4
20260506021818 64 165 3.0 8.0 0.00 0.58 0.01 72 1015.2
20260506020811 64 120 5.0 11.0 0.00 0.58 0.01 71 1015.2
20260506015811 64 124 5.0 8.0 0.00 0.67 0.01 70 1015.2
20260506014839 65 182 5.0 10.0 0.00 0.67 0.01 69 1015.2
20260506013815 65 97 5.0 8.0 0.00 0.67 0.01 68 1015.1
20260506012817 65 101 6.0 8.0 0.00 0.67 0.01 68 1015.1
20260506011842 65 127 3.0 10.0 0.00 0.67 0.01 69 1015.2
20260506010819 65 144 3.0 10.0 0.00 0.67 0.01 68 1015.2
20260506005817 66 118 3.0 7.0 0.00 0.71 0.01 67 1015.0
20260506004817 66 96 3.0 6.0 0.00 0.71 0.01 67 1014.8
20260506003814 66 112 5.0 9.0 0.00 0.71 0.01 67 1014.8
20260506002816 66 159 2.0 7.0 0.00 0.71 0.01 67 1014.7
20260506001818 66 145 5.0 9.0 0.00 0.71 0.01 66 1014.7
20260506000811 66 103 4.0 8.0 0.00 0.71 0.01 65 1014.7
20260505235812 66 136 2.0 5.0 0.00 0.82 0.01 65 1014.7
20260505234814 66 157 2.0 5.0 0.00 0.82 0.01 64 1014.7
20260505233813 66 202 1.0 8.0 0.00 0.82 0.01 65 1014.7
20260505232812 67 184 3.0 7.0 0.00 0.82 0.01 64 1014.7
20260505231809 67 172 2.0 5.0 0.00 0.82 0.01 62 1014.6
20260505230807 67 114 3.0 5.0 0.00 0.82 0.01 62 1014.7
20260505225808 67 34 2.0 3.0 0.00 0.88 0.01 62 1014.7
20260505224801 67 143 1.0 4.0 0.00 0.88 0.01 63 1014.7
20260505223816 67 170 3.0 5.0 0.00 0.88 0.01 62 1014.7
20260505222818 66 178 0.0 3.0 0.00 0.88 0.01 64 1014.9
20260505221842 66 324 1.0 4.0 0.00 0.88 0.01 64 1015.0
20260505220816 65 57 1.0 6.0 0.00 0.88 0.01 65 1015.1
20260505215834 65 277 3.0 6.0 0.00 0.91 0.01 66 1015.1
20260505214831 66 250 2.0 4.0 0.00 0.91 0.01 65 1015.2
20260505213810 65 12 2.0 6.0 0.00 0.91 0.01 65 1015.3
20260505212833 67 349 2.0 7.0 0.00 0.91 0.01 65 1015.3
20260505211811 65 197 3.0 8.0 0.00 0.91 0.01 68 1015.3
20260505210803 65 116 2.0 8.0 0.00 0.91 0.01 67 1015.3
20260505205820 65 101 2.0 5.0 0.00 0.91 0.01 68 1015.4
20260505204820 64 156 3.0 6.0 0.00 0.91 0.01 71 1015.6
20260505203820 64 119 2.0 5.0 0.00 0.91 0.01 71 1015.5
20260505202801 63 191 2.0 6.0 0.00 0.91 0.01 74 1015.7
20260505201819 63 287 2.0 4.0 0.00 0.91 0.01 74 1015.7
20260505200813 62 228 3.0 5.0 0.00 0.91 0.01 74 1015.8
20260505195809 62 181 2.0 5.0 0.00 0.92 0.01 75 1015.8
20260505194806 62 181 3.0 6.0 0.00 0.92 0.01 76 1015.8
20260505193803 62 215 3.0 5.0 0.00 0.92 0.01 76 1015.8
20260505192819 62 245 3.0 6.0 0.00 0.92 0.01 74 1015.8
20260505191801 63 232 2.0 4.0 0.00 0.92 0.01 76 1015.9
20260505190840 62 102 3.0 5.0 0.00 0.92 0.01 74 1015.9
20260505185813 61 138 4.0 5.0 0.00 0.92 0.01 77 1015.9
20260505184837 61 96 2.0 4.0 0.00 0.92 0.01 78 1015.8
20260505183813 61 95 2.0 6.0 0.00 0.92 0.01 79 1015.7
20260505182814 60 128 3.0 6.0 0.00 0.92 0.01 80 1015.9
20260505181813 60 159 1.0 6.0 0.00 0.92 0.01 80 1015.8
20260505180830 59 172 2.0 5.0 0.00 0.92 0.01 82 1015.7
20260505175830 59 182 1.0 4.0 0.00 0.95 0.01 83 1015.6
20260505174812 59 124 2.0 4.0 0.00 0.95 0.01 84 1015.5
20260505173813 59 104 2.0 4.0 0.00 0.95 0.01 86 1015.5
20260505172814 57 123 3.0 7.0 0.00 0.95 0.01 88 1015.5
20260505171816 56 236 4.0 5.0 0.00 0.95 0.01 90 1015.5
20260505170814 56 137 2.0 4.0 0.00 0.95 0.01 91 1015.5
20260505165813 56 99 2.0 6.0 0.00 0.95 0.01 92 1015.5
20260505164814 55 135 3.0 6.0 0.00 0.95 0.01 92 1015.5
20260505163815 55 123 1.0 7.0 0.00 0.95 0.01 93 1015.4
20260505162810 55 116 3.0 7.0 0.00 0.95 0.01 93 1015.4
20260505161815 55 151 4.0 7.0 0.00 0.95 0.01 93 1015.4
20260505160817 54 162 4.0 8.0 0.00 0.95 0.01 94 1015.4
20260505152817 53 164 3.0 7.0 0.00 0.95 0.01 94 1015.3
20260505151820 53 155 3.0 7.0 0.00 0.95 0.01 94 1015.3
20260505150801 53 122 2.0 5.0 0.00 0.95 0.01 94 1015.2
20260505124804 53 141 2.0 6.0 0.00 0.95 0.01 94 1014.3
20260505123828 52 147 2.0 6.0 0.00 0.95 0.01 94 1014.3
20260505122815 52 174 3.0 7.0 0.00 0.95 0.01 94 1014.2
20260505121816 52 171 2.0 5.0 0.00 0.95 0.01 94 1014.1
20260505120817 52 168 3.0 5.0 0.00 0.95 0.01 94 1014.1
20260505115803 52 167 3.0 6.0 0.00 0.95 0.01 94 1014.3
20260505114820 52 166 2.0 6.0 0.00 0.95 0.01 94 1014.3
20260505113803 52 147 2.0 5.0 0.00 0.95 0.01 94 1014.4
20260505112828 52 168 3.0 6.0 0.00 0.95 0.01 94 1014.5
20260505111808 53 161 2.0 8.0 0.00 0.95 0.01 93 1014.5
20260505110816 53 182 2.0 4.0 0.00 0.95 0.01 93 1014.3
20260505101810 53 153 3.0 8.0 0.00 0.95 0.01 93 1014.3
20260505100811 53 147 5.0 9.0 0.00 0.95 0.01 93 1014.3
20260505095830 53 162 4.0 9.0 0.00 0.95 0.01 93 1014.3
20260505094813 53 161 2.0 7.0 0.00 0.95 0.01 93 1014.4
20260505093829 53 185 2.0 4.0 0.00 0.95 0.01 93 1014.6
20260505092807 53 146 2.0 4.0 0.00 0.95 0.01 93 1014.8
20260505091809 53 155 2.0 5.0 0.00 0.95 0.01 93 1014.6
20260505090807 53 162 1.0 4.0 0.00 0.95 0.01 93 1014.8
20260505085808 53 163 3.0 4.0 0.00 0.95 0.01 93 1014.9
20260505084813 53 137 1.0 5.0 0.00 0.95 0.01 93 1015.0
20260505083812 53 130 2.0 5.0 0.00 0.95 0.01 93 1015.1
20260505082814 53 118 1.0 4.0 0.00 0.95 0.01 93 1015.1
20260505081816 53 126 2.0 4.0 0.00 0.95 0.01 93 1015.1
20260505080815 53 130 0.0 2.0 0.01 0.95 0.01 93 1015.0
20260505075818 53 132 1.0 2.0 0.01 0.95 0.01 93 1014.9
20260505074801 53 129 0.0 0.0 0.02 0.95 0.01 93 1015.0
20260505073819 53 128 0.0 0.0 0.02 0.95 0.01 93 1015.1
20260505072819 53 112 0.0 0.0 0.03 0.95 0.01 93 1015.2
20260505071805 53 95 0.0 2.0 0.04 0.95 0.01 93 1015.3
20260505070808 53 107 0.0 3.0 0.03 0.94 0.00 93 1015.2
20260505065841 53 118 0.0 3.0 0.04 0.94 0.94 93 1015.1
20260505064807 53 111 1.0 3.0 0.05 0.93 0.93 93 1015.1
20260505063803 54 119 1.0 4.0 0.08 0.93 0.93 93 1015.2
20260505062819 54 47 1.0 3.0 0.09 0.92 0.92 93 1015.4
20260505061819 54 110 1.0 4.0 0.10 0.91 0.91 93 1015.2
20260505060814 54 85 0.0 2.0 0.11 0.91 0.91 93 1015.1
20260505055802 54 155 0.0 0.0 0.10 0.90 0.90 93 1015.0
20260505054841 54 152 0.0 2.0 0.08 0.88 0.88 93 1015.0
20260505053813 54 110 0.0 2.0 0.05 0.85 0.85 93 1015.3
20260505052809 54 87 0.0 0.0 0.03 0.83 0.83 93 1015.3
20260505051809 54 82 0.0 2.0 0.04 0.81 0.81 93 1015.1
20260505050826 54 99 0.0 4.0 0.06 0.80 0.80 92 1015.2
20260505040805 54 69 0.0 3.0 0.26 0.74 0.74 92 1015.2
20260505035816 54 64 2.0 6.0 0.23 0.68 0.68 92 1015.4
20260505034813 54 51 0.0 2.0 0.18 0.62 0.62 92 1015.3
20260505033813 54 37 0.0 1.0 0.16 0.58 0.58 92 1015.2